QPF
0.00 0.01 0.02 0.05 0.10 0.11 0.12 0.15 0.24 0.37 0.46 0.43 0.34 0.27 0.22 0.18 0.12 0.10 0.11 0.12 0.11 0.15 0.17 0.15 0.14 0.15 0.14 0.12 0.12 0.12 0.12 0.11 0.12 0.12 0.09 0.06 0.05 0.05 0.06 0.07 0.07 0.08 0.09
0.00 0.00 0.01 0.01 0.04 0.08 0.13 0.16 0.22 0.32 0.39 0.36 0.31 0.26 0.22 0.16 0.14 0.16 0.17 0.15 0.14 0.16 0.18 0.19 0.17 0.19 0.18 0.13 0.12 0.13 0.12 0.10 0.14 0.17 0.17 0.12 0.09 0.07 0.05 0.07 0.11 0.17 0.17
0.01 0.01 0.01 0.01 0.03 0.05 0.08 0.11 0.13 0.17 0.20 0.19 0.19 0.20 0.21 0.16 0.16 0.18 0.20 0.19 0.18 0.17 0.20 0.20 0.20 0.19 0.19 0.15 0.13 0.15 0.15 0.14 0.16 0.18 0.21 0.18 0.13 0.11 0.07 0.14 0.20 0.23 0.25
0.03 0.02 0.01 0.01 0.02 0.03 0.05 0.05 0.04 0.06 0.06 0.07 0.10 0.13 0.14 0.13 0.15 0.19 0.18 0.15 0.16 0.16 0.18 0.18 0.19 0.20 0.19 0.15 0.14 0.16 0.19 0.22 0.20 0.21 0.20 0.19 0.16 0.16 0.11 0.17 0.26 0.26 0.25
0.01 0.01 0.01 0.01 0.01 0.01 0.01 0.02 0.02 0.02 0.02 0.03 0.05 0.06 0.06 0.07 0.09 0.12 0.11 0.10 0.12 0.14 0.15 0.17 0.18 0.16 0.17 0.17 0.19 0.21 0.22 0.23 0.21 0.20 0.23 0.25 0.23 0.23 0.18 0.14 0.14 0.19 0.22
0.00 0.00 0.00 0.00 0.00 0.00 0.00 0.01 0.01 0.01 0.01 0.01 0.01 0.02 0.02 0.04 0.05 0.06 0.07 0.07 0.09 0.10 0.09 0.11 0.13 0.15 0.16 0.16 0.17 0.20 0.21 0.21 0.22 0.23 0.22 0.23 0.24 0.23 0.22 0.18 0.13 0.10 0.08
0.00 0.00 0.00 0.00 0.00 0.00 0.00 0.00 0.00 0.00 0.00 0.00 0.00 0.01 0.01 0.01 0.02 0.03 0.04 0.04 0.05 0.05 0.05 0.08 0.11 0.13 0.13 0.13 0.15 0.16 0.16 0.19 0.22 0.24 0.25 0.27 0.27 0.25 0.24 0.21 0.17 0.12 0.08
0.00 0.00 0.00 0.00 0.00 0.00 0.00 0.00 0.00 0.00 0.00 0.00 0.00 0.00 0.00 0.00 0.01 0.01 0.01 0.02 0.03 0.04 0.05 0.07 0.10 0.14 0.15 0.16 0.17 0.18 0.20 0.24 0.27 0.31 0.34 0.34 0.31 0.29 0.26 0.22 0.17 0.12 0.09
0.00 0.00 0.00 0.00 0.00 0.00 0.00 0.00 0.00 0.00 0.00 0.00 0.00 0.00 0.00 0.00 0.00 0.01 0.02 0.02 0.03 0.05 0.06 0.08 0.10 0.13 0.16 0.18 0.20 0.21 0.23 0.27 0.31 0.34 0.38 0.38 0.34 0.31 0.26 0.21 0.15 0.10 0.07
0.00 0.00 0.00 0.00 0.00 0.00 0.00 0.00 0.00 0.00 0.00 0.00 0.00 0.00 0.00 0.00 0.00 0.01 0.01 0.02 0.03 0.05 0.08 0.09 0.12 0.15 0.20 0.22 0.24 0.26 0.33 0.35 0.34 0.34 0.33 0.32 0.30 0.28 0.25 0.20 0.12 0.06 0.04
0.00 0.00 0.00 0.00 0.00 0.00 0.00 0.00 0.00 0.00 0.00 0.00 0.00 0.00 0.00 0.00 0.00 0.00 0.01 0.01 0.03 0.06 0.10 0.14 0.17 0.21 0.27 0.31 0.30 0.31 0.34 0.36 0.35 0.35 0.34 0.32 0.27 0.23 0.19 0.13 0.08 0.04 0.02
0.00 0.00 0.00 0.00 0.00 0.00 0.01 0.00 0.00 0.00 0.00 0.00 0.00 0.00 0.00 0.00 0.00 0.00 0.00 0.01 0.02 0.06 0.12 0.18 0.21 0.25 0.29 0.35 0.39 0.44 0.46 0.44 0.40 0.35 0.32 0.29 0.23 0.20 0.14 0.09 0.05 0.02 0.01
0.00 0.00 0.00 0.00 0.00 0.00 0.00 0.00 0.00 0.00 0.00 0.00 0.00 0.00 0.00 0.00 0.00 0.00 0.00 0.00 0.02 0.08 0.11 0.13 0.16 0.21 0.26 0.29 0.32 0.34 0.38 0.40 0.42 0.37 0.28 0.22 0.15 0.12 0.09 0.05 0.03 0.01 0.00
0.00 0.00 0.00 0.00 0.00 0.00 0.00 0.01 0.01 0.00 0.00 0.00 0.00 0.00 0.00 0.00 0.01 0.00 0.00 0.00 0.01 0.02 0.06 0.10 0.14 0.18 0.22 0.26 0.26 0.23 0.22 0.23 0.25 0.24 0.22 0.18 0.11 0.07 0.04 0.02 0.01 0.00 0.00
0.00 0.00 0.00 0.00 0.00 0.00 0.00 0.00 0.00 0.00 0.00 0.00 0.00 0.00 0.00 0.01 0.01 0.00 0.00 0.00 0.01 0.02 0.03 0.04 0.10 0.14 0.16 0.17 0.16 0.14 0.11 0.10 0.10 0.11 0.12 0.11 0.07 0.04 0.02 0.01 0.00 0.00 0.00
0.00 0.00 0.00 0.00 0.00 0.00 0.00 0.00 0.00 0.00 0.00 0.00 0.00 0.01 0.01 0.01 0.01 0.00 0.00 0.01 0.01 0.02 0.03 0.04 0.05 0.09 0.10 0.12 0.14 0.11 0.08 0.05 0.03 0.03 0.03 0.02 0.01 0.01 0.01 0.00 0.00 0.00 0.00
0.00 0.00 0.00 0.00 0.00 0.00 0.00 0.00 0.00 0.00 0.01 0.00 0.01 0.01 0.02 0.02 0.01 0.00 0.00 0.00 0.01 0.02 0.03 0.04 0.04 0.05 0.07 0.07 0.10 0.13 0.09 0.04 0.02 0.01 0.00 0.00 0.00 0.00 0.00 0.00 0.00 0.00 0.00
0.00 0.00 0.00 0.00 0.00 0.00 0.00 0.00 0.01 0.01 0.01 0.01 0.01 0.02 0.02 0.02 0.01 0.00 0.00 0.00 0.01 0.01 0.02 0.02 0.02 0.02 0.03 0.04 0.05 0.06 0.04 0.02 0.01 0.00 0.00 0.00 0.00 0.00 0.00 0.00 0.00 0.00 0.00
0.00 0.00 0.00 0.00 0.00 0.01 0.01 0.01 0.01 0.01 0.01 0.01 0.02 0.02 0.02 0.02 0.02 0.01 0.01 0.01 0.01 0.00 0.00 0.01 0.01 0.01 0.01 0.02 0.02 0.02 0.01 0.01 0.00 0.00 0.00 0.00 0.00 0.00 0.00 0.00 0.00 0.00 0.00
0.00 0.00 0.00 0.01 0.01 0.01 0.01 0.02 0.02 0.02 0.02 0.02 0.03 0.03 0.02 0.02 0.02 0.02 0.02 0.01 0.01 0.00 0.00 0.00 0.00 0.00 0.00 0.01 0.01 0.01 0.01 0.00 0.00 0.00 0.00 0.00 0.00 0.00 0.00 0.00 0.00 0.00 0.00
0.01 0.01 0.02 0.01 0.02 0.02 0.03 0.04 0.04 0.04 0.03 0.03 0.03 0.03 0.03 0.03 0.02 0.02 0.02 0.02 0.02 0.01 0.01 0.01 0.00 0.00 0.00 0.00 0.00 0.00 0.00 0.00 0.00 0.00 0.00 0.00 0.00 0.00 0.00 0.00 0.00 0.00 0.00
0.02 0.02 0.02 0.03 0.03 0.04 0.06 0.07 0.07 0.07 0.06 0.05 0.05 0.04 0.04 0.03 0.03 0.03 0.03 0.02 0.02 0.01 0.01 0.00 0.00 0.00 0.00 0.00 0.00 0.00 0.00 0.00 0.00 0.00 0.00 0.00 0.00 0.00 0.00 0.00 0.00 0.00 0.00
0.02 0.03 0.03 0.03 0.04 0.06 0.10 0.13 0.14 0.14 0.13 0.12 0.10 0.08 0.06 0.04 0.04 0.04 0.03 0.03 0.01 0.01 0.01 0.00 0.00 0.00 0.00 0.00 0.00 0.00 0.00 0.00 0.00 0.00 0.00 0.00 0.00 0.00 0.00 0.00 0.00 0.00 0.00
0.01 0.02 0.03 0.03 0.04 0.08 0.14 0.18 0.19 0.19 0.17 0.15 0.12 0.10 0.07 0.06 0.05 0.05 0.04 0.02 0.02 0.02 0.01 0.01 0.00 0.00 0.00 0.00 0.00 0.00 0.00 0.00 0.00 0.00 0.00 0.00 0.00 0.00 0.00 0.00 0.00 0.00 0.00
0.01 0.02 0.03 0.04 0.05 0.07 0.12 0.18 0.22 0.25 0.25 0.22 0.17 0.13 0.10 0.07 0.06 0.05 0.04 0.03 0.02 0.01 0.01 0.01 0.01 0.00 0.00 0.00 0.00 0.00 0.00 0.00 0.00 0.00 0.00 0.00 0.00 0.00 0.00 0.00 0.00 0.00 0.00
0.00 0.01 0.02 0.03 0.04 0.08 0.11 0.18 0.25 0.29 0.30 0.27 0.21 0.16 0.12 0.09 0.07 0.05 0.04 0.03 0.02 0.01 0.01 0.00 0.00 0.00 0.00 0.00 0.00 0.00 0.00 0.00 0.00 0.00 0.00 0.00 0.00 0.00 0.00 0.00 0.00 0.00 0.00
MSLP
1010.38 1010.37 1010.31 1010.21 1010.08 1009.94 1009.84 1009.79 1009.82 1009.91 1010.05 1010.20 1010.31 1010.37 1010.33 1010.19 1009.97 1009.70 1009.42 1009.17 1009.00 1008.93 1008.97 1009.12 1009.36 1009.67 1010.01 1010.36 1010.71 1011.03 1011.31 1011.54 1011.72 1011.81 1011.82 1011.73 1011.52 1011.21 1010.81 1010.35 1009.87 1009.43 1009.07
1010.78 1010.80 1010.75 1010.64 1010.47 1010.29 1010.12 1010.01 1009.98 1010.04 1010.16 1010.30 1010.42 1010.46 1010.41 1010.23 1009.96 1009.61 1009.25 1008.92 1008.68 1008.55 1008.55 1008.68 1008.91 1009.21 1009.55 1009.90 1010.24 1010.56 1010.84 1011.09 1011.29 1011.42 1011.48 1011.45 1011.30 1011.05 1010.68 1010.24 1009.76 1009.30 1008.90
1010.99 1011.03 1011.01 1010.92 1010.75 1010.55 1010.35 1010.20 1010.13 1010.16 1010.25 1010.38 1010.50 1010.54 1010.48 1010.29 1009.98 1009.59 1009.16 1008.77 1008.45 1008.25 1008.19 1008.26 1008.43 1008.69 1008.98 1009.29 1009.60 1009.89 1010.17 1010.43 1010.67 1010.87 1011.01 1011.07 1011.03 1010.87 1010.59 1010.21 1009.78 1009.34 1008.94
1010.97 1011.03 1011.05 1011.00 1010.87 1010.68 1010.48 1010.32 1010.23 1010.23 1010.31 1010.43 1010.54 1010.59 1010.53 1010.34 1010.01 1009.60 1009.14 1008.69 1008.30 1008.03 1007.88 1007.85 1007.93 1008.09 1008.30 1008.53 1008.78 1009.03 1009.30 1009.58 1009.86 1010.13 1010.38 1010.56 1010.66 1010.64 1010.49 1010.22 1009.88 1009.50 1009.12
1010.73 1010.82 1010.90 1010.90 1010.83 1010.68 1010.51 1010.36 1010.26 1010.25 1010.32 1010.43 1010.55 1010.60 1010.55 1010.38 1010.06 1009.64 1009.16 1008.67 1008.22 1007.86 1007.60 1007.46 1007.41 1007.45 1007.54 1007.67 1007.83 1008.04 1008.28 1008.57 1008.90 1009.26 1009.61 1009.93 1010.18 1010.31 1010.32 1010.20 1009.98 1009.69 1009.39
1010.35 1010.46 1010.58 1010.66 1010.66 1010.58 1010.46 1010.33 1010.25 1010.24 1010.31 1010.42 1010.53 1010.60 1010.58 1010.42 1010.13 1009.72 1009.23 1008.70 1008.20 1007.74 1007.37 1007.10 1006.91 1006.80 1006.75 1006.77 1006.84 1006.98 1007.20 1007.49 1007.87 1008.30 1008.76 1009.20 1009.59 1009.89 1010.06 1010.10 1010.02 1009.85 1009.64
1009.90 1010.02 1010.20 1010.34 1010.41 1010.40 1010.34 1010.26 1010.21 1010.21 1010.28 1010.40 1010.52 1010.61 1010.61 1010.49 1010.22 1009.84 1009.34 1008.79 1008.23 1007.69 1007.20 1006.79 1006.46 1006.21 1006.03 1005.92 1005.90 1005.98 1006.16 1006.46 1006.85 1007.34 1007.88 1008.42 1008.93 1009.36 1009.68 1009.87 1009.95 1009.92 1009.82
1009.48 1009.61 1009.82 1010.01 1010.14 1010.20 1010.20 1010.16 1010.14 1010.17 1010.25 1010.38 1010.52 1010.63 1010.66 1010.57 1010.34 1009.98 1009.50 1008.93 1008.32 1007.71 1007.12 1006.59 1006.12 1005.73 1005.43 1005.23 1005.13 1005.14 1005.29 1005.57 1005.98 1006.49 1007.07 1007.67 1008.26 1008.80 1009.23 1009.56 1009.77 1009.88 1009.91
1009.19 1009.31 1009.52 1009.74 1009.91 1010.00 1010.03 1010.03 1010.04 1010.09 1010.18 1010.33 1010.49 1010.62 1010.69 1010.65 1010.46 1010.13 1009.67 1009.10 1008.46 1007.79 1007.13 1006.50 1005.93 1005.44 1005.05 1004.76 1004.60 1004.57 1004.69 1004.95 1005.34 1005.85 1006.43 1007.06 1007.68 1008.27 1008.78 1009.20 1009.53 1009.77 1009.93
1009.11 1009.20 1009.38 1009.57 1009.73 1009.82 1009.86 1009.87 1009.89 1009.95 1010.06 1010.21 1010.40 1010.57 1010.67 1010.68 1010.54 1010.26 1009.83 1009.28 1008.64 1007.94 1007.23 1006.55 1005.92 1005.36 1004.91 1004.58 1004.39 1004.33 1004.43 1004.66 1005.03 1005.51 1006.07 1006.67 1007.28 1007.87 1008.42 1008.90 1009.31 1009.65 1009.93
1009.30 1009.32 1009.43 1009.55 1009.63 1009.68 1009.68 1009.66 1009.66 1009.71 1009.82 1009.99 1010.19 1010.40 1010.55 1010.61 1010.53 1010.31 1009.94 1009.44 1008.82 1008.14 1007.43 1006.74 1006.09 1005.52 1005.06 1004.72 1004.52 1004.46 1004.54 1004.76 1005.09 1005.53 1006.03 1006.58 1007.14 1007.70 1008.24 1008.74 1009.20 1009.62 1009.99
1009.75 1009.67 1009.66 1009.65 1009.63 1009.56 1009.48 1009.39 1009.35 1009.37 1009.46 1009.63 1009.85 1010.08 1010.28 1010.40 1010.40 1010.26 1009.97 1009.54 1009.00 1008.37 1007.71 1007.05 1006.43 1005.89 1005.45 1005.13 1004.95 1004.90 1004.99 1005.19 1005.50 1005.88 1006.32 1006.79 1007.29 1007.78 1008.28 1008.77 1009.24 1009.70 1010.14
1010.42 1010.22 1010.05 1009.88 1009.70 1009.49 1009.28 1009.09 1008.97 1008.93 1008.98 1009.14 1009.36 1009.61 1009.86 1010.05 1010.13 1010.09 1009.90 1009.58 1009.14 1008.61 1008.03 1007.45 1006.90 1006.42 1006.04 1005.77 1005.62 1005.60 1005.69 1005.89 1006.16 1006.50 1006.87 1007.27 1007.69 1008.11 1008.55 1009.00 1009.45 1009.92 1010.38
1011.23 1010.89 1010.55 1010.20 1009.83 1009.46 1009.10 1008.78 1008.56 1008.43 1008.43 1008.54 1008.75 1009.02 1009.30 1009.55 1009.72 1009.79 1009.73 1009.54 1009.23 1008.83 1008.37 1007.90 1007.45 1007.05 1006.74 1006.53 1006.43 1006.44 1006.55 1006.74 1006.99 1007.29 1007.60 1007.94 1008.28 1008.63 1008.99 1009.38 1009.79 1010.23 1010.69
1012.07 1011.59 1011.09 1010.57 1010.02 1009.48 1008.96 1008.51 1008.17 1007.95 1007.86 1007.92 1008.09 1008.35 1008.65 1008.95 1009.21 1009.38 1009.45 1009.41 1009.25 1009.00 1008.69 1008.35 1008.01 1007.71 1007.48 1007.33 1007.28 1007.31 1007.44 1007.63 1007.86 1008.12 1008.40 1008.68 1008.95 1009.23 1009.53 1009.85 1010.20 1010.59 1011.00
1012.81 1012.22 1011.59 1010.93 1010.23 1009.55 1008.90 1008.32 1007.86 1007.53 1007.35 1007.32 1007.44 1007.66 1007.96 1008.30 1008.62 1008.89 1009.09 1009.19 1009.19 1009.10 1008.95 1008.74 1008.52 1008.32 1008.16 1008.07 1008.06 1008.12 1008.25 1008.44 1008.66 1008.90 1009.15 1009.39 1009.62 1009.84 1010.08 1010.33 1010.61 1010.93 1011.28
1013.34 1012.68 1011.97 1011.21 1010.43 1009.65 1008.90 1008.22 1007.65 1007.22 1006.94 1006.82 1006.85 1007.02 1007.29 1007.62 1007.99 1008.34 1008.65 1008.88 1009.03 1009.10 1009.09 1009.02 1008.92 1008.82 1008.73 1008.69 1008.70 1008.78 1008.92 1009.10 1009.32 1009.55 1009.78 1010.00 1010.20 1010.39 1010.57 1010.77 1010.98 1011.23 1011.50
1013.57 1012.90 1012.16 1011.38 1010.57 1009.74 1008.95 1008.21 1007.56 1007.03 1006.65 1006.42 1006.36 1006.44 1006.65 1006.96 1007.33 1007.73 1008.12 1008.47 1008.76 1008.97 1009.10 1009.16 1009.17 1009.15 1009.13 1009.13 1009.17 1009.25 1009.40 1009.58 1009.80 1010.03 1010.25 1010.47 1010.66 1010.83 1010.99 1011.14 1011.30 1011.47 1011.67
1013.47 1012.83 1012.13 1011.38 1010.60 1009.80 1009.00 1008.24 1007.54 1006.94 1006.46 1006.13 1005.95 1005.92 1006.05 1006.30 1006.66 1007.08 1007.52 1007.96 1008.35 1008.68 1008.94 1009.12 1009.23 1009.30 1009.34 1009.38 1009.45 1009.55 1009.70 1009.89 1010.11 1010.35 1010.59 1010.81 1011.01 1011.19 1011.33 1011.46 1011.57 1011.69 1011.82
1013.07 1012.50 1011.88 1011.21 1010.50 1009.76 1009.00 1008.25 1007.53 1006.87 1006.31 1005.88 1005.58 1005.45 1005.47 1005.65 1005.96 1006.37 1006.84 1007.33 1007.81 1008.24 1008.61 1008.90 1009.11 1009.27 1009.38 1009.47 1009.58 1009.70 1009.86 1010.06 1010.30 1010.55 1010.81 1011.06 1011.29 1011.48 1011.63 1011.75 1011.85 1011.94 1012.02
1012.45 1011.96 1011.44 1010.87 1010.26 1009.60 1008.90 1008.18 1007.46 1006.77 1006.14 1005.62 1005.22 1004.98 1004.90 1004.99 1005.24 1005.62 1006.09 1006.62 1007.16 1007.67 1008.14 1008.53 1008.84 1009.08 1009.27 1009.43 1009.58 1009.74 1009.93 1010.16 1010.41 1010.69 1010.98 1011.26 1011.51 1011.74 1011.91 1012.05 1012.15 1012.23 1012.30
1011.71 1011.30 1010.86 1010.39 1009.88 1009.30 1008.67 1007.99 1007.28 1006.57 1005.90 1005.30 1004.82 1004.48 1004.31 1004.32 1004.50 1004.84 1005.30 1005.84 1006.42 1007.00 1007.55 1008.03 1008.45 1008.78 1009.06 1009.30 1009.51 1009.72 1009.95 1010.20 1010.49 1010.80 1011.11 1011.43 1011.72 1011.98 1012.19 1012.36 1012.49 1012.58 1012.66
1010.96 1010.59 1010.22 1009.82 1009.37 1008.86 1008.29 1007.64 1006.95 1006.24 1005.54 1004.90 1004.36 1003.95 1003.71 1003.65 1003.78 1004.07 1004.51 1005.05 1005.66 1006.29 1006.91 1007.47 1007.98 1008.41 1008.78 1009.10 1009.38 1009.65 1009.93 1010.22 1010.54 1010.87 1011.22 1011.56 1011.89 1012.19 1012.44 1012.66 1012.82 1012.95 1013.05
1010.27 1009.92 1009.57 1009.20 1008.79 1008.31 1007.77 1007.15 1006.48 1005.77 1005.08 1004.42 1003.85 1003.41 1003.12 1003.01 1003.09 1003.35 1003.76 1004.30 1004.92 1005.58 1006.25 1006.89 1007.47 1007.99 1008.45 1008.85 1009.21 1009.55 1009.88 1010.21 1010.55 1010.91 1011.28 1011.64 1012.00 1012.33 1012.63 1012.88 1013.10 1013.27 1013.42
1009.68 1009.31 1008.95 1008.57 1008.15 1007.68 1007.15 1006.55 1005.89 1005.21 1004.53 1003.89 1003.32 1002.87 1002.57 1002.43 1002.48 1002.71 1003.10 1003.62 1004.24 1004.92 1005.62 1006.31 1006.96 1007.56 1008.10 1008.58 1009.01 1009.40 1009.77 1010.13 1010.50 1010.87 1011.25 1011.62 1011.99 1012.35 1012.68 1012.98 1013.24 1013.47 1013.66
1009.18 1008.77 1008.36 1007.94 1007.49 1007.00 1006.46 1005.87 1005.24 1004.59 1003.95 1003.34 1002.81 1002.38 1002.08 1001.94 1001.98 1002.18 1002.54 1003.03 1003.64 1004.32 1005.03 1005.76 1006.46 1007.11 1007.71 1008.26 1008.74 1009.19 1009.59 1009.98 1010.35 1010.72 1011.10 1011.47 1011.84 1012.21 1012.56 1012.89 1013.20 1013.47 1013.72
Thickness
5800 5803 5802 5799 5794 5789 5784 5779 5776 5773 5770 5766 5762 5758 5758 5761 5763 5764 5763 5762 5762 5761 5760 5759 5757 5754 5751 5749 5748 5745 5742 5740 5738 5733 5732 5735 5737 5737 5739 5739 5739 5740 5741
5791 5792 5791 5788 5784 5779 5775 5771 5767 5763 5760 5758 5756 5753 5753 5755 5757 5758 5757 5756 5755 5754 5754 5752 5750 5749 5745 5743 5741 5739 5735 5734 5732 5726 5721 5719 5723 5729 5735 5734 5733 5734 5735
5783 5783 5782 5780 5777 5772 5768 5764 5760 5756 5753 5750 5748 5746 5745 5745 5746 5747 5747 5748 5748 5748 5747 5746 5744 5743 5741 5739 5737 5735 5730 5726 5726 5724 5717 5710 5710 5717 5724 5726 5727 5727 5729
5778 5777 5776 5773 5769 5765 5762 5757 5753 5749 5746 5743 5739 5735 5732 5730 5733 5735 5737 5739 5739 5740 5739 5739 5738 5737 5736 5734 5733 5732 5728 5723 5719 5718 5717 5716 5714 5707 5709 5715 5718 5720 5721
5771 5771 5770 5767 5764 5760 5755 5751 5746 5742 5738 5735 5731 5727 5724 5723 5724 5725 5726 5728 5730 5731 5731 5731 5731 5731 5731 5730 5728 5726 5724 5721 5718 5715 5712 5709 5708 5706 5702 5701 5706 5709 5714
5766 5765 5765 5761 5756 5752 5748 5743 5737 5733 5730 5727 5723 5719 5716 5715 5714 5714 5715 5717 5719 5721 5722 5723 5723 5724 5724 5723 5722 5721 5718 5717 5715 5713 5710 5706 5703 5701 5699 5696 5697 5698 5704
5758 5756 5754 5751 5747 5744 5739 5735 5729 5724 5722 5719 5715 5712 5709 5707 5705 5705 5705 5706 5708 5710 5712 5713 5714 5715 5716 5716 5716 5714 5713 5711 5710 5708 5706 5705 5703 5702 5698 5693 5692 5692 5695
5751 5750 5748 5745 5741 5737 5732 5727 5722 5717 5714 5710 5707 5704 5701 5698 5696 5696 5696 5696 5697 5699 5702 5704 5706 5707 5708 5708 5708 5706 5706 5705 5704 5702 5701 5699 5699 5698 5695 5692 5687 5683 5683
5746 5745 5743 5740 5736 5732 5727 5722 5716 5711 5707 5703 5699 5695 5691 5689 5687 5686 5686 5686 5687 5689 5692 5694 5696 5698 5699 5699 5699 5697 5697 5696 5695 5694 5693 5693 5693 5692 5690 5688 5686 5680 5674
5742 5741 5738 5735 5732 5728 5723 5718 5712 5706 5700 5695 5691 5687 5683 5679 5677 5676 5675 5675 5676 5678 5680 5683 5685 5687 5688 5688 5688 5687 5687 5687 5686 5686 5684 5684 5684 5684 5683 5682 5681 5679 5674
5736 5734 5732 5730 5727 5722 5717 5711 5705 5700 5694 5689 5683 5679 5674 5671 5668 5666 5664 5664 5664 5666 5668 5670 5672 5674 5676 5676 5676 5675 5675 5676 5677 5677 5675 5674 5675 5673 5673 5673 5672 5670 5670
5728 5726 5725 5722 5718 5714 5710 5705 5700 5694 5689 5684 5678 5672 5667 5663 5659 5657 5655 5654 5654 5655 5656 5658 5659 5662 5663 5664 5664 5663 5663 5663 5663 5664 5664 5662 5662 5661 5662 5662 5661 5661 5661
5717 5715 5713 5711 5709 5707 5704 5700 5695 5690 5685 5678 5672 5666 5660 5656 5652 5649 5646 5645 5644 5644 5645 5646 5647 5649 5650 5651 5651 5651 5650 5651 5649 5650 5649 5649 5650 5649 5650 5650 5651 5652 5652
5703 5702 5700 5700 5700 5699 5697 5694 5690 5686 5680 5673 5666 5659 5655 5650 5646 5642 5639 5637 5635 5635 5635 5635 5636 5637 5637 5638 5638 5638 5638 5638 5638 5636 5636 5637 5638 5638 5639 5640 5641 5642 5640
5688 5688 5686 5686 5687 5687 5687 5686 5684 5680 5675 5667 5661 5655 5650 5645 5640 5636 5632 5630 5628 5627 5626 5626 5627 5627 5628 5628 5628 5627 5626 5626 5625 5625 5625 5626 5627 5629 5631 5631 5631 5633 5631
5672 5673 5674 5673 5674 5675 5677 5678 5676 5674 5669 5663 5657 5652 5646 5640 5635 5630 5627 5624 5621 5619 5618 5617 5617 5618 5619 5619 5619 5618 5616 5615 5615 5614 5615 5618 5618 5620 5621 5622 5624 5626 5623
5655 5656 5657 5658 5660 5663 5666 5668 5670 5668 5663 5659 5654 5648 5642 5636 5631 5627 5622 5618 5615 5613 5611 5609 5608 5608 5608 5609 5610 5610 5608 5606 5606 5607 5608 5609 5608 5610 5612 5613 5615 5615 5616
5640 5640 5642 5644 5647 5651 5655 5659 5662 5660 5657 5653 5649 5644 5639 5634 5628 5623 5618 5614 5611 5608 5606 5604 5602 5601 5601 5602 5602 5602 5600 5598 5598 5598 5598 5598 5599 5603 5604 5605 5605 5606 5607
5626 5626 5627 5629 5631 5634 5639 5645 5648 5649 5648 5647 5645 5641 5636 5631 5626 5620 5615 5612 5608 5605 5603 5601 5598 5595 5595 5596 5596 5595 5593 5591 5590 5590 5591 5593 5593 5596 5598 5598 5597 5598 5599
5616 5615 5615 5615 5616 5619 5622 5626 5631 5634 5636 5638 5639 5638 5634 5629 5624 5619 5614 5610 5606 5603 5600 5597 5595 5592 5591 5591 5592 5591 5588 5585 5583 5583 5585 5587 5588 5590 5592 5591 5591 5590 5591
5600 5600 5599 5598 5598 5601 5604 5607 5612 5617 5623 5627 5630 5631 5629 5626 5622 5618 5613 5609 5605 5600 5597 5594 5592 5589 5588 5588 5589 5588 5586 5583 5581 5580 5580 5581 5584 5585 5587 5587 5587 5587 5587
5583 5582 5580 5580 5581 5582 5585 5589 5594 5601 5607 5614 5620 5623 5623 5622 5620 5614 5610 5607 5603 5598 5594 5591 5588 5586 5585 5585 5586 5586 5585 5584 5582 5580 5579 5579 5581 5582 5583 5583 5584 5584 5583
5565 5563 5561 5562 5563 5563 5565 5570 5577 5584 5591 5599 5606 5613 5615 5616 5615 5611 5607 5603 5600 5597 5593 5590 5587 5584 5583 5582 5583 5584 5584 5584 5582 5581 5580 5579 5579 5579 5579 5580 5580 5579 5577
5546 5544 5542 5541 5543 5545 5547 5551 5559 5566 5574 5583 5593 5601 5605 5608 5608 5607 5604 5602 5599 5596 5593 5590 5587 5584 5581 5579 5579 5580 5581 5581 5580 5578 5577 5577 5576 5575 5575 5575 5574 5573 5570
5529 5526 5524 5524 5526 5528 5530 5535 5541 5548 5556 5567 5578 5588 5595 5599 5601 5601 5602 5601 5601 5600 5596 5593 5591 5586 5582 5583 5582 5580 5578 5578 5577 5574 5571 5570 5569 5569 5569 5568 5568 5566 5564
5514 5512 5510 5510 5511 5513 5516 5520 5525 5532 5541 5552 5564 5576 5584 5590 5594 5595 5595 5596 5598 5597 5596 5595 5592 5590 5589 5586 5581 5580 5579 5577 5575 5572 5568 5567 5566 5566 5565 5564 5562 5561 5559